Gold Country Challenge - Loft Flight

Station: Loft Fly - T Race

Distance: 0.3 Miles    

Release: 14-Aug-2019 06:40

Weather Release: Warm Morning    Arrival: Over 100 Today

Wind at Release:     Wind at Arrival:

Temp at Release: °    Temp at Arrival: °

Lofts: 113

Birds: 463

Clocked: 463

Training weekend once 100+ Degree Heatwave subsides from next few days.
Drops Pos Breeder Pigeon Name Color Sex Ent Arrival Speed To Win Eligible Champ
1 A F L - GA 0068-IF19-AFL BB C 1 07:46:43.30 7.913 00:00:00 Yes
2 Jeff Earthman - NV 1930-AU19-JEDD 899-803 BB H 1 07:47:35.70 7.811 00:00:52 Yes
3 Jeff Earthman - NV 1931-AU19-JEDD 899-803 BB H 2 07:48:53.10 7.665 00:02:10 Yes
4 Ken Chhi - CA 25766-AU19-AA BBWF H 1 07:50:32.60 7.485 00:03:49 Yes
5 White Arrow Loft - IL 15804-AU19-AA BB H 1 07:50:43.30 7.466 00:04:00 Yes
6 Gottruhm - CA 56118-AU19-ARPU BB H 1 07:51:39.40 7.368 00:04:56 Yes
7 Sierra Ranch - CA 0982-AU19-SR BB H 1 07:51:44.20 7.360 00:05:01 Yes
8 Don & Kathy Dusart - CA 0217-AU19-WDRP BC H 1 07:51:46.80 7.356 00:05:03 Yes
9 All In - CA 3301-AU19-BON BC H 1 07:52:12.60 7.312 00:05:29 Yes
10 Ron Brooks - AR 1912-AU19-REB BB H 1 07:52:40.70 7.265 00:05:57 Yes
11 Fleet Washington - DC 1920-AU19-FLET BC H 1 07:53:14.70 7.209 00:06:31 Yes
12 Tian Loft - FL 15625-AU19-ARPU BB H 1 07:53:24.90 7.192 00:06:41 Yes
13 Peters - GA 0014-AU19-PETE PETERS - 3 BB H 1 07:54:08.30 7.122 00:07:25 Yes
14 Jactions Loft - CA 0812-AU19-AA RC H 1 07:54:21.40 7.101 00:07:38 Yes
15 Jeff Earthman - NV 1910-AU19-JEDD “1750-899” BB H 3 07:54:34.30 7.080 00:07:51 Yes
16 De La O-Lopez-Saenz - CA 0320-AU19-TCH BBWF H 1 07:54:37.10 7.076 00:07:54 Yes
17 Marty Hansen - CA 9012-AU19-SHEW BB H 1 07:55:20.70 7.008 00:08:37 Yes
18 R P S Loft - CA 1171-AU19-SFR Take-it-away=W BC H 1 07:55:24.40 7.002 00:08:41 Yes
19 Nemelka Racing Pigeon Loft - UT 9081-AU19-NRPL Red Devil RC C 1 07:55:56.70 6.952 00:09:13 Yes
20 A-Lo-Loft - NY 2829-AU19-FOYS ☯️73☯️ BB H 1 07:56:00.20 6.947 00:09:17 Yes
21 J & J Loft Of Tx. - TX 1613-AU19-WACO 122 x 3061 BCWF H 1 07:56:00.90 6.946 00:09:17 Yes
22 Emmalyn & Carelyn Loft - CA 0008-AU19-CEYX BB H 1 07:56:08.60 6.934 00:09:25 Yes
23 Aimhigh Loft - CA 2924-AU19-AA ANCHING~CHIM*0006*** BB H 1 07:56:12.50 6.928 00:09:29 Yes
24 WŸŁØft - CA 13532-AU19-AA #2 PIED H 1 07:56:23.70 6.911 00:09:40 Yes
25 ** J-Ireneo Loft ** - CA 0422-AU19-JIR BB H 1 07:56:53.30 6.867 00:10:10 Yes
26 Poorhouse Road Loft - VA 29738-AU19-ARPU DG BB H 1 07:56:55.10 6.864 00:10:12 Yes
27 Rodriguez Loft - TX 19575-AU19-WIN 6630-15207 BC H 1 07:56:59.40 6.858 00:10:16 Yes
28 Dan & Greg Coury - AZ 13981-AU19-JEDD BC H 1 07:57:06.30 6.848 00:10:23 Yes
29 Dan & Greg Coury - AZ 0341-AU19-AONE 1103+683 "Top Speed" BC H 2 07:57:24.80 6.821 00:10:41 Yes
30 Genesis Syndicate Loft - AZ 0742-AU19-GENS BB H 1 07:57:29.20 6.814 00:10:46 Yes
31 Perfection Loft - KS 7099-AU19-AA SLT H 1 07:57:33.50 6.808 00:10:50 Yes
32 Irishsyndicatelofts - AZ 0486-IF19-IRIS BB H 1 07:57:34.70 6.806 00:10:51 Yes
33 Jimmy Zheng Loft - MS 0931-AU19-JZL BB H 1 07:57:35.30 6.805 00:10:52 Yes
34 G & L Loft - OR 0516-AU19-WPC BC C 1 07:57:35.80 6.804 00:10:53 Yes
35 Elton Dinga - TX 16162-AU19-AA Olympiad 03 x (820 x 404) BB H 1 07:57:47.60 6.787 00:11:04 Yes
36 J S R Loft - UT 0060-AU19-JSRL BBSP H 1 07:57:53.60 6.779 00:11:10 Yes
37 Bob Niemeyer - CA 0931-AU19-AUB BB H 1 07:58:02.10 6.766 00:11:19 Yes
38 Silicon Valley Syndicates - CA 19004-AU19-SVS BB H 1 07:58:18.60 6.742 00:11:35 Yes
39 Salsloft.Com & Sons - UT 1562-AU19-SALS BB H 1 07:58:22.90 6.736 00:11:40 Yes
40 Lopez / Saenz - CA 9090-AU19-CGR BC H 1 07:58:31.70 6.724 00:11:48 Yes
41 House Of Paine - CA 0427-AU19-HOP BC H 1 07:58:37.30 6.716 00:11:54 Yes
42 H & H Flying Circus - CA 0286-AU19-ML BC H 1 07:58:39.10 6.713 00:11:56 Yes
43 Gomez Loft - CA 1062-AU19-CHP BB H 1 07:59:00.20 6.683 00:12:17 Yes
44 Tian Loft - FL 15629-AU19-ARPU BB H 2 07:59:01.40 6.682 00:12:18 Yes
45 Al Shulman - CA 2503-AU19-WSJ DC H 1 07:59:07.80 6.673 00:12:24 Yes
46 Shi Loft - PA 7069-IF19-ERIE BB H 1 07:59:08.50 6.672 00:12:25 Yes
47 Perfection Loft - KS 7082-AU19-AA BBSP H 2 07:59:08.80 6.671 00:12:25 Yes
48 Eastern Pearl Loft - VA 0518-AU19-EPL 🈚️量518=249x355 BB H 1 07:59:26.50 6.646 00:12:43 Yes
49 Peters - GA 0002-AU19-PETE PETERS - 1 DC H 2 07:59:38.80 6.629 00:12:55 Yes
50 Watson & Williams - NV 0722-AU19-AUB BC H 1 08:00:00.80 6.599 00:13:17 Yes
51 Crazy Als Lofts - CO 5697-AU19-CRAZ BB H 1 08:00:34.00 6.554 00:13:50 Yes
52 J & M Partridge Loft - CA 1619-AU19-PASO BB C 1 08:00:34.40 6.553 00:13:51 Yes
53 De La O-Lopez-Saenz - CA 0321-AU19-TCH BB H 2 08:00:39.00 6.547 00:13:55 Yes
54 House Of Paine - CA 0433-AU19-HOP DCSP H 2 08:01:02.50 6.515 00:14:19 Yes
55 Marty Hansen - CA 2103-AU19-LAKE BB H 2 08:01:07.20 6.509 00:14:24 Lost
56 Gomez Loft - CA 1093-AU19-CHP RC H 2 08:01:10.80 6.504 00:14:27 Lost
57 Evolution One Loft - UT 7351-AU19-OGN DC H 1 08:01:15.80 6.497 00:14:33 Yes
58 Da-Dong - WI 1681-AU19-RAC 8057-2782 BC H 1 08:01:19.30 6.493 00:14:36 Yes
58 Bob Bostwick - CA 0930-AU19-COCO BB H 1 08:01:19.40 6.493 00:14:36 Yes
60 Na Hoa - HI 0903-AU19-AUB BB H 1 08:01:28.40 6.481 00:14:45 Yes
61 Mels Loft - NY 0006-IF19-MTFL BB H 1 08:01:30.40 6.478 00:14:47 Yes
62 Cruz Bros. - CA 81500-AU19-MAN BCPD H 1 08:01:36.80 6.470 00:14:53 Yes
63 Racing Pigeon Mall - WA 0906-AU19-RPM BLK H 1 08:01:45.00 6.459 00:15:01 Yes
64 Watson & Williams - NV 0776-AU19-AUB BB H 2 08:01:46.60 6.457 00:15:03 Yes
65 Avalos Lofts - CA 1151-AU19-TULE BB H 1 08:01:48.50 6.454 00:15:05 Yes
65 P N W Challenge - ID 1903-AU19-PAPA “PAIR #J15” BB H 1 08:01:48.50 6.454 00:15:05 Yes
67 Whiskey Hollow Loft - TX 1300-AU19-WACO BC H 1 08:02:03.50 6.434 00:15:20 Yes
68 Irishsyndicatelofts - AZ 0495-IF19-IRIS BB H 2 08:02:11.70 6.424 00:15:28 Yes
69 Na Hoa - HI 0821-AU19-KAU "Hio" BB C 2 08:02:18.70 6.415 00:15:35 Yes
70 Scrub Family Loft - MN 0025-AU19-UNIT Miss Kleine Figo SLT H 1 08:02:19.60 6.413 00:15:36 Yes
70 Mels Loft - NY 0009-IF19-MTFL PIED H 2 08:02:19.90 6.413 00:15:36 Yes
72 Dan & Greg Coury - AZ 0440-AU19-AONE 1244+4445 "Maybe2Close;)" BB H 3 08:02:35.50 6.393 00:15:52 Yes
73 D J's Loft Of Ca - CA 5097-AU19-FSC BB H 1 08:02:47.60 6.377 00:16:04 Yes
74 Rodriguez Loft - TX 19577-AU19-WIN 11500-10383 BLK H 2 08:02:52.00 6.372 00:16:08 Yes
75 Bieche-Stevenson - CA 9140-AU19-BIE BC H 1 08:03:02.40 6.358 00:16:19 Yes
76 J S R Loft - UT 0056-AU19-JSRL BB H 2 08:03:05.70 6.354 00:16:22 Yes
77 Ken Chin - CA 0062-AU19-TRAN BC C 1 08:03:09.00 6.350 00:16:25 Yes
78 American Star Racing Pigeons - CA 0514-AU19-ASTR BB H 1 08:03:13.90 6.344 00:16:30 Yes
79 P N W Challenge - ID 0515-AU19-IDA “PAIR #J8” BB H 2 08:03:16.00 6.341 00:16:33 Yes
80 Ken Chin - CA 0816-AU19-HAY BB H 2 08:03:16.70 6.340 00:16:33 Yes
81 Schmueckle Loft - TX 1056-AU19-SAL BB H 1 08:03:34.90 6.317 00:16:52 Yes
82 Rob Wilson - CA 0750-AU19-AVC BBSP H 1 08:03:55.00 6.292 00:17:11 Yes
83 Tarheel Syndicate - NC 9260-IF19-TRC Raleigh BBWF H 1 08:04:04.20 6.280 00:17:21 Yes
83 Bob Bostwick - CA 0929-AU19-COCO BB H 2 08:04:04.80 6.280 00:17:21 Yes
85 Skychargers - CA 0273-AU19-CORO GRIZ H 1 08:04:05.20 6.279 00:17:22 Yes
85 D B Loft - CA 4511-AU19-JEDD WIND JAMMER BB H 1 08:04:05.50 6.279 00:17:22 Yes
87 Wing-N-It Loft - WA 0485-AU19-TAC BB H 1 08:04:06.30 6.278 00:17:23 Yes
88 Goshentown Lofts - TN 7618-AU19-NASH BB H 1 08:04:43.00 6.233 00:17:59 Yes
89 Genesis Syndicate Loft - AZ 0777-AU19-GENS BB H 2 08:04:48.80 6.225 00:18:06 Yes
90 Fleet Washington - DC 1958-AU19-FLET BC H 2 08:04:54.60 6.218 00:18:11 Yes
91 Marty Hansen - CA 2104-AU19-LAKE BB H 3 08:05:04.90 6.206 00:18:21 Yes
92 Wing-N-It Loft - WA 0481-AU19-TAC BB H 2 08:05:15.80 6.193 00:18:32 Yes
93 Crazy Als Lofts - CO 5579-AU19-CRAZ BBSP H 2 08:05:17.20 6.191 00:18:34 Yes
94 Mels Loft - NY 0064-IF19-MTFL BB H 3 08:05:22.40 6.185 00:18:39 Yes
95 Baldwin & Tilson - NC 9017-AU19-TENT 7078-6304 SLT C 1 08:05:32.80 6.172 00:18:49 Yes
96 King Conch Loft - ON 0139-CU19-KCL BB H 1 08:05:40.60 6.163 00:18:57 Yes
97 Avalos Lofts - CA 1152-AU19-TULE BB H 2 08:05:44.20 6.158 00:19:01 Yes
98 R P S Loft - CA 1173-AU19-SFR Pho-ling-away=W BC H 2 08:05:53.80 6.147 00:19:10 Yes
99 Duane Gragg - CA 0971-AU19-KEYH PIED H 1 08:05:57.10 6.143 00:19:14 Yes
99 Stallion - CA 0816-AU19-SFPC Wichita’s Gold BB H 1 08:05:57.40 6.143 00:19:14 Yes

There are 453 bird records

Note: These Race Results are unofficial and subject to change until verified by the Race Committee and declared final.